Regional Weather Roundup
Issued by NWS

Home | Current Version | Previous Version | Graphics & Text | Print | Product List | Glossary On
Versions: 1 2 3 4 5 6 7 8 9 10 11 12 13 14 15 16 17 18 19 20 21 22 23 24 25 26 27 28 29 30 31 32 33 34 35 36 37 38 39 40 41 42 43 44 45 46 47 48 49 50
000
ASUS45 KCYS 300510
RWRWY

WYOMING REGIONAL WEATHER ROUNDUP
NATIONAL WEATHER SERVICE CHEYENNE WY
1100 PM MDT SAT APR 29 2017

NOTE:  "FAIR" INDICATES FEW OR NO CLOUDS BELOW 12,000 FEET
WITH NO SIGNIFICANT WEATHER AND/OR OBSTRUCTIONS TO VISIBILITY.

WYZ001-300600-
YELLOWSTONE NATIONAL PARK

CITY           SKY/WX    TMP DP  RH WIND       PRES   REMARKS
LK YELLOWSTONE   N/A     24  21  88 CALM      30.20F
W YELLOWSTONE  NOT AVBL

$$
WYZ002>013-054>058-071-098>099-300600-
NORTHERN WYOMING

CITY           SKY/WX    TMP DP  RH WIND       PRES   REMARKS
JACKSON        FAIR      36  21  55 SE3       30.21R
CODY           FAIR      34  28  79 SW5       30.16F WCI  30
GREYBULL       FAIR      40  24  53 E7        30.16S
WORLAND        FAIR      34  30  85 S10       30.17S WCI  26
SHERIDAN       FAIR      30  24  78 SW7       30.16F WCI  23
BUFFALO        FAIR      32  20  61 W7        30.18F WCI  26
GILLETTE       FAIR      33  24  69 SW7       30.19F WCI  27
HULETT         FAIR      32  23  69 S8        30.19F WCI  25
NEWCASTLE      FAIR      32  25  74 SW3       30.20F

$$
WYZ014>020-022>026-101>103-300600-
CENTRAL WYOMING

CITY           SKY/WX    TMP DP  RH WIND       PRES   REMARKS
BIG PINEY      FAIR      26  20  77 N12       30.20S WCI  16
PINEDALE       FAIR      27  21  80 W6        30.21S WCI  20
DUBOIS         FAIR      28  21  74 S5        30.19S WCI  23
LANDER         FAIR      30  18  60 CALM      30.19S
RIVERTON       FAIR      30  22  72 SW7       30.21S WCI  23
CASPER         FAIR      26  21  81 CALM      30.20F
DOUGLAS        FAIR      30  23  75 CALM      30.21F

$$
WYZ021-027>030-104>119-300600-
SOUTHERN WYOMING

CITY           SKY/WX    TMP DP  RH WIND       PRES   REMARKS
EVANSTON       FAIR      32  21  64 SW6       30.24S WCI  26
KEMMERER         N/A     32  23  69 NE5       30.23S WCI  27
FORT BRIDGER   FAIR      34  23  64 W10       30.25  WCI  26
ROCK SPRINGS   FAIR      31  19  61 E3        30.22S
DIXON            N/A     30  22  72 N10       30.22S WCI  21
RAWLINS        FAIR      24  20  84 NW5       30.21R WCI  18
SARATOGA       FAIR      23  18  80 S13       30.20F WCI  11
LARAMIE        FAIR      17  14  88 W7        30.18F WCI   8
CHEYENNE       FAIR      30  15  53 NW15      30.15F WCI  19
TORRINGTON     FAIR      33  26  75 NW8       30.17F WCI  26
PINE BLUFFS    FAIR      30  21  69 NW10      30.16F WCI  21

$$



USA.gov is the U.S. government's official web portal to all federal, state and local government web resources and services.